User: anonymous   Login
Location: Unspecified
(0.0000°N, 0.0000°E)
Time: 19:15:40
(UTC+00:00)
Language:

EXOCUBE - Orbit

View from above orbital plane
View from above orbital plane
View from above satellite
View from above satellite

Ground track
Ground track

The orbit data is extracted from the following two-line orbital elements,

1 40380U 15003E   18139.75088311  .00001266  00000-0  61824-4 0  9999
2 40380  99.0976  30.1451 0142785 344.7485  14.9457 15.12500268181654
Epoch (UTC): 19 May 2018 18:01:16
Eccentricity: 0.0142785
inclination: 99.0976°
perigee height: 430 km
apogee height: 627 km
right ascension of ascending node: 30.1451°
argument of perigee: 344.7485°
revolutions per day: 15.12500268
mean anomaly at epoch: 14.9457°
orbit number at epoch: 18165

The dashed part of the orbit path shows where the satellite is in the earth's shadow,  

DLR